Location: *
(49.8044°N, 4.0558°E)
Time: 11:03:24
(UTC+00:00)

SL-16 R/B - Pass Details

Date: 09 April 2020
Orbit: 985 x 1007 km, 99.5° (Epoch: 25 May)

Event Time Altitude Azimuth Distance (km) Brightness Sun altitude
Exits shadow 23:48:42 22° 87° (E) 2,058 4.2 -32.1°
Maximum altitude 23:50:56 27° 56° (NE) 1,835 4.2 -32.1°
Drops below altitude 10° 23:55:58 10° 2° (N) 2,774 5.7 -32.1°
Sets 23:58:48 0° 351° (N) 3,724 6.6 -32.1°
